�N����,����,�~����,�C��,���x,�C��,����,���ϕ���,�ő�u�ԕ���,�ő厞����,���˗�,�I�_���x,�n�����x,�ő啗���N��,DTYPE
"19/11/09","00:10",0.0,7.7,86.0,1012.3,299.1,1.0,2.2,335.7,0.00,5.5,13.5,"00:03:04",1
"19/11/09","00:20",0.0,7.3,86.1,1012.1,292.3,1.1,2.4,283.7,0.00,5.2,13.2,"00:19:44",1
"19/11/09","00:30",0.0,7.5,86.3,1012.3,291.0,1.3,2.1,315.2,0.00,5.4,13.1,"00:21:36",1
"19/11/09","00:40",0.0,7.7,86.3,1012.3,130.2,0.6,2.5,337.0,0.00,5.6,13.3,"00:32:00",1
"19/11/09","00:50",0.0,7.3,86.4,1012.6,293.6,1.2,2.5,317.8,0.00,5.2,13.2,"00:48:32",1
"19/11/09","01:00",0.0,7.0,86.8,1012.6,301.6,1.6,2.4,315.7,0.00,5.0,13.2,"00:52:08",1
"19/11/09","01:10",0.0,7.3,87.3,1012.3,314.5,2.0,4.5,295.8,0.00,5.4,13.1,"01:00:02",1
"19/11/09","01:20",0.0,8.2,87.3,1012.6,311.9,2.3,5.2,318.2,0.00,6.3,12.9,"01:14:00",1
"19/11/09","01:30",0.0,8.7,86.5,1012.6,322.5,3.0,5.1,344.6,0.00,6.6,13.2,"01:23:28",1
"19/11/09","01:40",0.0,8.7,85.8,1012.6,326.5,2.7,5.1,346.7,0.00,6.5,13.1,"01:33:04",1
"19/11/09","01:50",0.0,8.5,85.4,1012.6,332.3,2.6,4.5,339.0,0.00,6.2,12.8,"01:42:48",1
"19/11/09","02:00",0.0,8.2,85.2,1012.6,328.3,2.2,4.3,319.6,0.00,5.9,12.9,"01:51:04",1
"19/11/09","02:10",0.0,7.7,85.3,1012.6,312.2,1.8,2.6,306.8,0.00,5.4,13.0,"02:05:12",1
"19/11/09","02:20",0.0,7.1,85.4,1012.6,288.1,0.8,2.1,309.0,0.00,4.9,12.9,"02:11:04",1
"19/11/09","02:30",0.0,6.4,85.6,1012.1,300.6,1.3,1.8,320.7,0.00,4.2,13.0,"02:25:52",1
"19/11/09","02:40",0.0,6.1,85.9,1012.1,293.5,1.2,1.7,306.0,0.00,4.0,12.7,"02:39:58",1
"19/11/09","02:50",0.0,5.8,86.3,1012.6,303.9,1.2,2.0,306.7,0.00,3.7,12.8,"02:42:18",1
"19/11/09","03:00",0.0,5.6,86.7,1012.1,320.8,1.1,1.8,301.1,0.00,3.6,12.9,"02:54:16",1
"19/11/09","03:10",0.0,5.7,87.3,1011.9,28.5,0.5,1.7,327.4,0.00,3.8,12.8,"03:01:04",1
"19/11/09","03:20",0.0,5.3,87.7,1011.6,298.0,1.1,1.3,322.5,0.00,3.5,12.7,"03:11:16",1
"19/11/09","03:30",0.0,5.4,88.5,1011.6,102.1,0.2,1.1,318.3,0.00,3.7,12.7,"03:20:56",1
"19/11/09","03:40",0.0,5.2,89.0,1011.4,313.4,1.2,2.1,315.9,0.00,3.6,12.5,"03:39:16",1
"19/11/09","03:50",0.0,5.1,89.4,1011.6,320.2,1.5,1.9,324.4,0.00,3.5,12.6,"03:42:34",1
"19/11/09","04:00",0.0,4.9,89.7,1011.4,278.5,0.8,0.9,265.7,0.00,3.4,12.5,"03:50:32",1
"19/11/09","04:10",0.0,4.7,90.2,1011.4,285.1,0.6,1.0,284.2,0.00,3.3,12.5,"04:07:22",1
"19/11/09","04:20",0.0,5.2,90.5,1011.2,313.9,1.3,2.0,318.8,0.00,3.8,12.2,"04:11:16",1
"19/11/09","04:30",0.0,5.6,90.9,1011.6,327.5,1.5,2.1,317.3,0.00,4.3,12.1,"04:28:04",1
"19/11/09","04:40",0.0,5.3,91.1,1011.2,315.0,1.6,2.1,319.4,0.00,4.0,12.5,"04:31:56",1
"19/11/09","04:50",0.0,5.1,91.4,1011.4,299.8,1.1,2.2,320.0,0.00,3.9,12.1,"04:40:28",1
"19/11/09","05:00",0.0,4.9,91.9,1011.6,304.1,1.0,2.4,315.8,0.00,3.7,11.9,"04:59:50",1
"19/11/09","05:10",0.0,5.5,92.0,1011.6,323.5,1.2,3.2,323.2,0.00,4.3,12.1,"05:00:08",1
"19/11/09","05:20",0.0,5.1,92.3,1011.4,303.1,1.1,1.8,323.3,0.00,4.0,12.1,"05:18:04",1
"19/11/09","05:30",0.0,4.8,92.5,1011.6,272.9,0.3,1.1,294.8,0.00,3.7,11.9,"05:20:24",1
"19/11/09","05:40",0.0,4.5,92.8,1011.6,292.1,1.1,1.9,315.2,0.00,3.5,11.9,"05:36:44",1
"19/11/09","05:50",0.0,4.3,93.2,1011.6,284.0,0.8,2.4,307.9,0.00,3.3,12.0,"05:49:10",1
"19/11/09","06:00",0.0,4.3,93.4,1011.9,315.2,1.7,2.2,325.0,0.00,3.4,11.8,"05:50:02",1
"19/11/09","06:10",0.0,4.2,93.5,1011.9,304.6,1.3,1.9,323.2,0.00,3.3,11.8,"06:00:20",1
"19/11/09","06:20",0.0,4.0,93.7,1011.6,290.4,0.8,1.2,287.4,0.00,3.1,11.8,"06:17:56",1
"19/11/09","06:30",0.0,3.8,93.9,1011.9,302.0,1.3,2.1,317.6,0.00,2.9,11.7,"06:23:10",1
"19/11/09","06:40",0.0,4.0,94.1,1011.6,296.8,1.5,1.9,324.9,0.00,3.2,11.6,"06:37:46",1
"19/11/09","06:50",0.0,4.2,94.2,1011.9,307.3,1.3,1.8,313.2,0.00,3.4,11.6,"06:41:14",1
"19/11/09","07:00",0.0,3.8,94.2,1012.1,292.7,1.2,1.8,306.8,0.00,3.0,11.7,"06:56:08",1
"19/11/09","07:10",0.0,3.9,94.6,1012.1,286.0,1.1,1.7,313.1,0.00,3.2,11.6,"07:00:24",1
"19/11/09","07:20",0.0,4.4,94.6,1012.3,295.6,1.5,3.6,320.0,0.00,3.7,11.5,"07:12:26",1
"19/11/09","07:30",0.0,5.1,94.7,1012.3,301.5,1.7,2.7,324.4,0.00,4.4,11.3,"07:26:32",1
"19/11/09","07:40",0.0,5.6,94.6,1012.3,313.3,2.0,2.9,325.3,0.00,4.8,11.3,"07:30:16",1
"19/11/09","07:50",0.0,5.9,94.8,1013.0,285.7,1.3,2.4,331.5,0.00,5.2,11.5,"07:40:56",1
"19/11/09","08:00",0.0,6.7,94.8,1013.0,245.2,0.3,1.0,301.9,0.01,6.0,11.5,"07:53:36",1
"19/11/09","08:10",0.0,7.2,94.8,1013.0,346.2,0.5,1.4,332.9,0.02,6.5,11.6,"08:09:28",1
"19/11/09","08:20",0.0,8.2,94.7,1013.3,303.7,1.2,1.8,324.7,0.04,7.4,11.8,"08:13:04",1
"19/11/09","08:30",0.0,9.0,94.5,1013.5,302.4,0.8,1.6,315.1,0.05,8.2,11.8,"08:29:04",1
"19/11/09","08:40",0.0,9.8,94.2,1014.0,296.7,0.5,1.2,279.0,0.08,9.0,11.8,"08:30:08",1
"19/11/09","08:50",0.0,9.7,93.7,1013.8,318.9,1.6,2.9,333.5,0.11,8.8,12.0,"08:43:04",1
"19/11/09","09:00",0.0,10.1,93.3,1013.8,311.0,1.6,4.0,331.3,0.14,9.1,11.9,"08:55:36",1
"19/11/09","09:10",0.0,10.4,91.6,1014.5,290.9,1.6,3.4,336.0,0.16,9.1,12.2,"09:02:00",1
"19/11/09","09:20",0.0,10.3,90.4,1014.2,248.9,1.6,2.9,234.0,0.19,8.8,12.3,"09:11:44",1
"19/11/09","09:30",0.0,10.9,89.3,1014.5,247.7,1.2,2.7,245.3,0.21,9.3,12.7,"09:22:08",1
"19/11/09","09:40",0.0,11.3,86.6,1014.0,236.8,1.2,2.1,240.0,0.24,9.2,12.8,"09:39:36",1
"19/11/09","09:50",0.0,11.8,83.4,1014.5,247.8,1.1,2.6,233.4,0.26,9.1,13.0,"09:48:16",1
"19/11/09","10:00",0.0,12.2,80.6,1014.2,235.9,1.2,2.8,238.8,0.28,9.0,13.0,"09:52:08",1
"19/11/09","10:10",0.0,13.4,77.8,1014.5,253.9,0.6,1.4,224.9,0.30,9.6,13.5,"10:02:48",1
"19/11/09","10:20",0.0,14.0,74.2,1013.5,299.1,0.7,1.9,247.5,0.32,9.5,13.6,"10:19:36",1
"19/11/09","10:30",0.0,14.4,71.7,1013.8,276.8,0.7,1.8,240.3,0.34,9.4,13.8,"10:24:00",1
"19/11/09","10:40",0.0,14.7,69.0,1013.3,226.0,0.8,1.8,204.5,0.36,9.1,14.1,"10:35:20",1
"19/11/09","10:50",0.0,15.6,68.4,1013.5,241.2,0.6,1.6,223.0,0.37,9.8,14.1,"10:47:20",1
"19/11/09","11:00",0.0,16.1,66.4,1013.3,257.8,0.7,1.7,245.3,0.38,9.9,14.6,"10:53:52",1
"19/11/09","11:10",0.0,16.2,64.2,1012.6,219.7,1.1,3.2,231.7,0.40,9.5,14.9,"11:08:24",1
"19/11/09","11:20",0.0,17.0,63.6,1012.3,240.0,0.7,1.7,200.2,0.41,10.1,15.0,"11:10:40",1
"19/11/09","11:30",0.0,17.9,60.6,1012.1,205.3,0.6,1.7,213.6,0.42,10.2,15.4,"11:20:02",1
"19/11/09","11:40",0.0,18.5,57.5,1011.9,284.7,1.2,3.7,348.4,0.42,10.0,15.4,"11:35:04",1
"19/11/09","11:50",0.0,18.4,56.1,1011.6,173.9,1.2,3.5,108.4,0.43,9.5,15.7,"11:46:24",1
"19/11/09","12:00",0.0,18.5,55.9,1011.4,115.8,0.8,1.8,109.1,0.43,9.6,16.1,"11:53:12",1
"19/11/09","12:10",0.0,18.7,54.2,1011.2,167.0,1.1,2.5,149.3,0.44,9.3,16.2,"12:05:20",1
"19/11/09","12:20",0.0,19.2,50.2,1010.7,296.0,1.5,4.5,339.6,0.44,8.6,16.4,"12:15:20",1
"19/11/09","12:30",0.0,19.8,46.0,1010.2,322.7,1.1,3.5,340.5,0.44,7.9,16.5,"12:28:08",1
"19/11/09","12:40",0.0,20.2,44.6,1010.4,334.7,1.5,3.4,330.6,0.44,7.8,16.8,"12:33:04",1
"19/11/09","12:50",0.0,20.2,45.2,1010.2,339.9,2.1,5.5,322.4,0.43,8.0,16.9,"12:43:12",1
"19/11/09","13:00",0.0,20.3,46.2,1010.0,340.7,2.0,5.1,348.6,0.43,8.4,17.1,"12:55:20",1
"19/11/09","13:10",0.0,20.1,45.7,1010.0,5.2,2.0,4.2,326.5,0.42,8.1,17.2,"13:07:28",1
"19/11/09","13:20",0.0,20.3,44.3,1009.3,331.2,2.0,4.1,325.6,0.41,7.8,17.4,"13:18:00",1
"19/11/09","13:30",0.0,20.3,44.2,1009.3,326.5,2.3,6.5,341.1,0.40,7.8,17.7,"13:24:24",1
"19/11/09","13:40",0.0,20.4,43.7,1009.3,342.2,2.0,4.9,317.2,0.39,7.7,17.6,"13:36:32",1
"19/11/09","13:50",0.0,20.4,42.2,1008.8,344.3,2.7,5.0,353.3,0.38,7.2,18.0,"13:46:40",1
"19/11/09","14:00",0.0,20.7,41.1,1009.0,321.0,2.2,6.0,342.4,0.37,7.1,17.8,"13:56:16",1
"19/11/09","14:10",0.0,20.7,41.8,1009.0,331.8,2.8,5.4,344.5,0.35,7.3,17.9,"14:02:56",1
"19/11/09","14:20",0.0,20.6,40.8,1009.0,330.1,2.8,5.2,345.7,0.34,6.9,18.0,"14:15:36",1
"19/11/09","14:30",0.0,20.7,39.9,1009.0,334.2,2.6,5.5,27.0,0.32,6.6,17.9,"14:28:16",1
"19/11/09","14:40",0.0,20.7,39.2,1009.0,355.4,2.2,5.6,336.4,0.30,6.4,18.0,"14:33:28",1
"19/11/09","14:50",0.0,20.6,40.0,1009.3,3.9,1.8,4.3,357.2,0.28,6.6,17.9,"14:49:04",1
"19/11/09","15:00",0.0,20.6,40.6,1009.0,336.6,2.1,4.3,348.5,0.25,6.8,17.9,"14:51:20",1
"19/11/09","15:10",0.0,20.5,41.0,1009.0,340.8,2.0,3.7,356.2,0.23,6.8,18.0,"15:01:28",1
"19/11/09","15:20",0.0,20.4,41.6,1009.0,344.1,2.0,4.3,323.2,0.21,7.0,18.0,"15:10:56",1
"19/11/09","15:30",0.0,20.4,41.6,1009.0,336.0,1.5,4.1,341.3,0.18,7.0,17.9,"15:25:04",1
"19/11/09","15:40",0.0,20.0,43.4,1009.0,339.8,2.2,4.7,330.6,0.16,7.2,18.0,"15:31:12",1
"19/11/09","15:50",0.0,19.4,42.9,1009.3,323.9,2.1,4.1,330.1,0.13,6.5,18.0,"15:44:40",1
"19/11/09","16:00",0.0,18.9,44.0,1009.3,326.3,2.7,5.1,340.3,0.09,6.4,17.7,"15:58:16",1
"19/11/09","16:10",0.0,18.8,45.5,1009.0,339.7,2.3,4.4,348.5,0.09,6.8,17.6,"16:00:02",1
"19/11/09","16:20",0.0,18.4,45.2,1009.3,338.1,2.6,5.2,341.9,0.07,6.4,17.8,"16:15:12",1
"19/11/09","16:30",0.0,18.1,46.9,1009.5,338.8,2.5,6.0,317.3,0.05,6.6,17.7,"16:20:40",1
"19/11/09","16:40",0.0,17.8,48.5,1009.3,334.1,2.5,5.4,340.6,0.03,6.8,17.5,"16:30:32",1
"19/11/09","16:50",0.0,17.5,50.6,1009.7,336.7,1.8,3.7,334.7,0.02,7.2,17.5,"16:44:16",1
"19/11/09","17:00",0.0,17.0,52.7,1009.7,338.7,1.5,3.1,339.5,0.00,7.3,17.2,"16:57:52",1
"19/11/09","17:10",0.0,16.4,54.8,1010.0,338.4,1.3,2.4,341.3,0.00,7.3,17.2,"17:09:04",1
"19/11/09","17:20",0.0,15.9,58.0,1010.0,334.5,1.3,1.9,335.5,0.00,7.7,17.1,"17:18:48",1
"19/11/09","17:30",0.0,15.2,61.5,1010.2,344.3,1.1,2.1,355.6,0.00,7.9,16.9,"17:21:28",1
"19/11/09","17:40",0.0,14.5,64.4,1010.0,343.0,1.0,2.4,336.5,0.00,7.9,16.8,"17:32:40",1
"19/11/09","17:50",0.0,13.7,66.4,1010.0,328.3,1.1,2.2,335.2,0.00,7.6,16.8,"17:40:08",1
"19/11/09","18:00",0.0,13.2,68.3,1010.2,324.4,1.2,1.9,319.5,0.00,7.5,16.4,"17:51:20",1
"19/11/09","18:10",0.0,12.9,69.8,1010.2,326.8,1.5,2.2,337.7,0.00,7.6,16.2,"18:03:46",1
"19/11/09","18:20",0.0,12.6,71.2,1010.4,335.5,1.1,1.8,338.9,0.00,7.6,16.2,"18:17:20",1
"19/11/09","18:30",0.0,12.4,72.4,1010.0,326.8,1.5,2.0,327.9,0.00,7.6,15.9,"18:24:58",1
"19/11/09","18:40",0.0,12.7,73.1,1010.2,330.6,2.1,3.4,310.4,0.00,8.0,15.9,"18:37:06",1
"19/11/09","18:50",0.0,13.3,71.6,1010.4,329.1,1.6,2.7,328.2,0.00,8.3,15.9,"18:44:50",1
"19/11/09","19:00",0.0,13.0,71.3,1010.7,300.2,1.2,2.5,332.0,0.00,8.0,15.7,"18:51:44",1
"19/11/09","19:10",0.0,12.1,72.3,1010.9,290.9,1.1,2.2,308.1,0.00,7.3,15.6,"19:05:34",1
"19/11/09","19:20",0.0,11.3,73.3,1010.9,288.7,1.0,1.4,304.3,0.00,6.7,15.4,"19:11:04",1
"19/11/09","19:30",0.0,10.9,74.5,1010.9,274.2,1.0,1.6,251.6,0.00,6.6,15.3,"19:24:10",1
"19/11/09","19:40",0.0,10.6,75.5,1010.4,276.8,1.1,1.6,313.3,0.00,6.5,15.2,"19:35:28",1
"19/11/09","19:50",0.0,10.6,76.5,1010.9,279.4,0.8,2.2,281.0,0.00,6.7,15.2,"19:40:56",1
"19/11/09","20:00",0.0,10.3,77.8,1010.4,298.0,0.6,1.2,260.8,0.00,6.6,14.9,"19:59:54",1
"19/11/09","20:10",0.0,9.7,79.1,1010.4,307.7,1.3,1.8,310.8,0.00,6.3,15.1,"20:03:20",1
"19/11/09","20:20",0.0,9.4,80.5,1010.7,314.6,1.3,2.1,324.3,0.00,6.3,14.8,"20:11:28",1
"19/11/09","20:30",0.0,9.3,81.7,1010.7,315.6,1.5,2.2,323.2,0.00,6.4,14.7,"20:22:40",1
"19/11/09","20:40",0.0,8.9,82.8,1010.4,281.8,1.2,1.9,321.5,0.00,6.2,14.4,"20:36:48",1
"19/11/09","20:50",0.0,9.1,83.8,1010.7,286.2,1.5,2.2,315.9,0.00,6.5,14.5,"20:46:32",1
"19/11/09","21:00",0.0,9.2,84.5,1010.4,305.8,1.3,2.1,322.4,0.00,6.8,14.5,"20:52:32",1
"19/11/09","21:10",0.0,8.9,85.3,1010.7,296.4,1.3,2.2,310.3,0.00,6.6,14.2,"21:09:52",1
"19/11/09","21:20",0.0,8.8,85.9,1010.4,298.8,1.5,2.7,324.2,0.00,6.6,14.2,"21:18:24",1
"19/11/09","21:30",0.0,9.2,86.7,1010.4,295.0,1.7,2.8,313.5,0.00,7.1,14.2,"21:23:36",1
"19/11/09","21:40",0.0,9.5,87.2,1010.7,324.2,1.6,3.3,334.8,0.00,7.5,14.1,"21:37:12",1
"19/11/09","21:50",0.0,9.2,87.5,1010.4,295.5,1.3,2.0,317.1,0.00,7.3,13.9,"21:42:00",1
"19/11/09","22:00",0.0,9.3,88.0,1010.7,304.3,1.3,2.5,335.9,0.00,7.5,13.9,"21:53:12",1
"19/11/09","22:10",0.0,9.2,88.3,1010.7,288.4,0.8,2.2,344.6,0.00,7.4,14.0,"22:00:24",1
"19/11/09","22:20",0.0,8.8,88.6,1010.9,295.9,0.7,1.9,313.3,0.00,7.1,13.8,"22:17:20",1
"19/11/09","22:30",0.0,8.9,89.2,1010.7,299.8,1.0,2.1,321.2,0.00,7.3,13.8,"22:29:36",1
"19/11/09","22:40",0.0,9.7,89.3,1010.7,323.4,1.7,2.9,346.9,0.00,8.1,13.7,"22:31:28",1
"19/11/09","22:50",0.0,10.1,89.3,1010.9,326.0,1.2,2.2,334.1,0.00,8.5,13.9,"22:40:40",1
"19/11/09","23:00",0.0,10.1,89.4,1010.9,284.1,0.7,2.0,328.8,0.00,8.5,13.7,"22:59:44",1
"19/11/09","23:10",0.0,9.8,89.6,1010.9,299.1,1.5,2.8,325.4,0.00,8.2,13.6,"23:08:32",1
"19/11/09","23:20",0.0,9.7,89.8,1010.9,315.4,1.2,2.1,323.5,0.00,8.1,13.7,"23:11:28",1
"19/11/09","23:30",0.0,9.6,90.0,1010.9,308.3,1.3,2.6,328.9,0.00,8.1,13.9,"23:29:30",1
"19/11/09","23:40",0.0,9.6,90.2,1010.4,297.2,1.2,1.8,327.5,0.00,8.1,13.8,"23:30:16",1
"19/11/09","23:50",0.0,9.7,90.4,1010.9,309.9,1.2,2.0,304.5,0.00,8.2,13.7,"23:40:02",1
"19/11/09","24:00",0.0,9.9,90.5,1011.2,307.6,1.5,2.0,308.4,0.00,8.5,13.8,"23:50:08",1
